Stündliche Wetter Holoy

Heute, 21 Juni, Montag

Zeit Temperatur Niederschläge Wind Luftdruck Luftfeuchtigkeit
00:00 +7°C° 0 mm 2 m/S 601 mmHg 79%
01:00 +7°C° 0 mm 2 m/S 601 mmHg 79%
02:00 +7°C° 0 mm 2 m/S 601 mmHg 79%
03:00 +7°C° 0 mm 2 m/S 601 mmHg 78%
04:00 +7°C° 0 mm 2 m/S 601 mmHg 78%
05:00 +9°C° 0 mm 2 m/S 602 mmHg 71%
06:00 +12°C° 0 mm 1 m/S 603 mmHg 64%
07:00 +15°C° 0 mm 1 m/S 603 mmHg 55%
08:00 +18°C° 0 mm 1 m/S 604 mmHg 50%
09:00 +19°C° 0 mm 1 m/S 604 mmHg 44%
10:00 +20°C° 0 mm 2 m/S 604 mmHg 38%
11:00 +19°C° 0.1 mm 2 m/S 604 mmHg 43%
12:00 +18°C° 0.1 mm 2 m/S 603 mmHg 48%
13:00 +18°C° 0.1 mm 2 m/S 603 mmHg 53%
14:00 +15°C° 2 mm 2 m/S 602 mmHg 65%
15:00 +13°C° 2 mm 2 m/S 602 mmHg 77%
16:00 +10°C° 2 mm 2 m/S 602 mmHg 89%
17:00 +10°C° 0.3 mm 3 m/S 602 mmHg 88%
18:00 +10°C° 0.3 mm 3 m/S 602 mmHg 88%
19:00 +10°C° 0.3 mm 3 m/S 602 mmHg 88%
20:00 +9°C° 0 mm 2 m/S 602 mmHg 88%
21:00 +9°C° 0 mm 2 m/S 603 mmHg 89%
22:00 +9°C° 0 mm 1 m/S 603 mmHg 90%
23:00 +9°C° 0 mm 1 m/S 603 mmHg 92%

Morgen, 22 Juni, Dienstag

Zeit Temperatur Niederschläge Wind Luftdruck Luftfeuchtigkeit
00:00 +9°C° 0 mm 1 m/S 603 mmHg 95%
01:00 +8°C° 0 mm 1 m/S 604 mmHg 97%
02:00 +8°C° 0.1 mm 1 m/S 604 mmHg 97%
03:00 +8°C° 0.1 mm 1 m/S 604 mmHg 98%
04:00 +7°C° 0.1 mm 2 m/S 604 mmHg 98%
05:00 +8°C° 0.3 mm 1 m/S 604 mmHg 98%
06:00 +8°C° 0.3 mm 1 m/S 604 mmHg 98%
07:00 +7°C° 0.3 mm 1 m/S 604 mmHg 98%
08:00 +7°C° 0.4 mm 1 m/S 604 mmHg 97%
09:00 +7°C° 0.4 mm 1 m/S 604 mmHg 97%
10:00 +7°C° 0.4 mm 1 m/S 604 mmHg 97%
11:00 +7°C° 0.1 mm 1 m/S 604 mmHg 96%
12:00 +7°C° 0.1 mm 1 m/S 604 mmHg 95%
13:00 +7°C° 0.1 mm 1 m/S 604 mmHg 95%
14:00 +8°C° 0 mm 1 m/S 604 mmHg 92%
15:00 +9°C° 0 mm 1 m/S 604 mmHg 90%
16:00 +9°C° 0 mm 1 m/S 605 mmHg 87%
17:00 +9°C° 0 mm 1 m/S 605 mmHg 88%
18:00 +9°C° 0 mm 1 m/S 605 mmHg 89%
19:00 +9°C° 0 mm 1 m/S 605 mmHg 90%
20:00 +8°C° 0 mm 1 m/S 604 mmHg 91%
21:00 +8°C° 0 mm 1 m/S 604 mmHg 93%
22:00 +8°C° 0 mm 1 m/S 604 mmHg 95%
23:00 +7°C° 0 mm 1 m/S 603 mmHg 95%

übermorgen, 23 Juni, Mittwoch

Zeit Temperatur Niederschläge Wind Luftdruck Luftfeuchtigkeit
00:00 +7°C° 0 mm 1 m/S 603 mmHg 95%
01:00 +7°C° 0 mm 1 m/S 603 mmHg 95%
02:00 +7°C° 0 mm 1 m/S 603 mmHg 95%
03:00 +7°C° 0 mm 1 m/S 603 mmHg 95%
04:00 +6°C° 0 mm 2 m/S 603 mmHg 94%
05:00 +9°C° 0 mm 1 m/S 603 mmHg 90%
06:00 +10°C° 0 mm 1 m/S 604 mmHg 85%
07:00 +12°C° 0 mm 1 m/S 604 mmHg 80%
08:00 +14°C° 0 mm 1 m/S 605 mmHg 71%
09:00 +15°C° 0 mm 1 m/S 605 mmHg 63%
10:00 +18°C° 0 mm 1 m/S 606 mmHg 54%
11:00 +19°C° 0 mm 1 m/S 606 mmHg 49%
12:00 +20°C° 0 mm 2 m/S 606 mmHg 44%
13:00 +21°C° 0 mm 2 m/S 606 mmHg 39%
14:00 +20°C° 0 mm 2 m/S 606 mmHg 41%
15:00 +20°C° 0 mm 2 m/S 606 mmHg 42%
16:00 +20°C° 0 mm 2 m/S 606 mmHg 44%
17:00 +18°C° 0 mm 2 m/S 606 mmHg 53%
18:00 +18°C° 0 mm 1 m/S 605 mmHg 62%
19:00 +15°C° 0 mm 1 m/S 605 mmHg 71%
20:00 +13°C° 0 mm 1 m/S 605 mmHg 76%
21:00 +11°C° 0 mm 1 m/S 605 mmHg 81%
22:00 +10°C° 0 mm 1 m/S 605 mmHg 86%
23:00 +10°C° 0.1 mm 1 m/S 605 mmHg 89%

24 Juni, Donnerstag

Zeit Temperatur Niederschläge Wind Luftdruck Luftfeuchtigkeit
00:00 +10°C° 0.1 mm 1 m/S 605 mmHg 91%
01:00 +10°C° 0.1 mm 1 m/S 605 mmHg 94%
02:00 +10°C° 0.1 mm 1 m/S 605 mmHg 95%
03:00 +10°C° 0.1 mm 1 m/S 605 mmHg 96%
04:00 +10°C° 0.1 mm 1 m/S 605 mmHg 98%
05:00 +10°C° 0.2 mm 1 m/S 605 mmHg 97%
06:00 +10°C° 0.2 mm 1 m/S 605 mmHg 97%
07:00 +10°C° 0.2 mm 1 m/S 605 mmHg 97%
08:00 +10°C° 0.3 mm 1 m/S 605 mmHg 96%
09:00 +10°C° 0.3 mm 1 m/S 605 mmHg 95%
10:00 +10°C° 0.3 mm 1 m/S 605 mmHg 95%
11:00 +10°C° 0.5 mm 1 m/S 604 mmHg 93%
12:00 +10°C° 0.5 mm 1 m/S 604 mmHg 91%
13:00 +10°C° 0.5 mm 1 m/S 604 mmHg 89%
14:00 +10°C° 2.1 mm 1 m/S 604 mmHg 91%
15:00 +9°C° 2.1 mm 1 m/S 604 mmHg 94%
16:00 +9°C° 2.1 mm 1 m/S 604 mmHg 96%
17:00 +9°C° 2 mm 1 m/S 604 mmHg 96%
18:00 +8°C° 2 mm 1 m/S 604 mmHg 97%
19:00 +8°C° 2 mm 1 m/S 603 mmHg 98%
20:00 +8°C° 0.2 mm 1 m/S 603 mmHg 98%
21:00 +7°C° 0.2 mm 1 m/S 603 mmHg 98%
22:00 +7°C° 0.2 mm 1 m/S 603 mmHg 98%
23:00 +7°C° 0 mm 1 m/S 603 mmHg 98%

25 Juni, Freitag

Zeit Temperatur Niederschläge Wind Luftdruck Luftfeuchtigkeit
00:00 +7°C° 0 mm 1 m/S 603 mmHg 98%
01:00 +6°C° 0 mm 0 m/S 603 mmHg 98%
02:00 +7°C° 0 mm 1 m/S 603 mmHg 98%
03:00 +7°C° 0 mm 1 m/S 603 mmHg 97%
04:00 +7°C° 0 mm 1 m/S 602 mmHg 97%
05:00 +8°C° 0 mm 1 m/S 603 mmHg 94%
06:00 +8°C° 0 mm 0 m/S 603 mmHg 90%
07:00 +9°C° 0 mm 0 m/S 603 mmHg 87%
08:00 +11°C° 0 mm 0 m/S 604 mmHg 79%
09:00 +13°C° 0 mm 1 m/S 604 mmHg 70%
10:00 +15°C° 0 mm 1 m/S 605 mmHg 62%
11:00 +16°C° 0 mm 1 m/S 605 mmHg 58%
12:00 +17°C° 0 mm 2 m/S 605 mmHg 53%
13:00 +18°C° 0 mm 2 m/S 605 mmHg 49%
14:00 +18°C° 0 mm 2 m/S 605 mmHg 50%
15:00 +18°C° 0 mm 2 m/S 605 mmHg 51%
16:00 +18°C° 0 mm 2 m/S 605 mmHg 52%
17:00 +16°C° 0.1 mm 2 m/S 605 mmHg 60%
18:00 +15°C° 0.1 mm 1 m/S 604 mmHg 68%
19:00 +14°C° 0.1 mm 1 m/S 604 mmHg 76%
20:00 +12°C° 0 mm 1 m/S 604 mmHg 79%
21:00 +10°C° 0 mm 1 m/S 604 mmHg 83%
22:00 +9°C° 0 mm 1 m/S 604 mmHg 87%
23:00 +9°C° 0 mm 1 m/S 604 mmHg 88%

26 Juni, Samstag

Zeit Temperatur Niederschläge Wind Luftdruck Luftfeuchtigkeit
00:00 +8°C° 0 mm 1 m/S 604 mmHg 88%
01:00 +8°C° 0 mm 1 m/S 605 mmHg 89%
02:00 +8°C° 0 mm 1 m/S 605 mmHg 90%
03:00 +7°C° 0 mm 1 m/S 605 mmHg 91%
04:00 +7°C° 0 mm 1 m/S 605 mmHg 92%
05:00 +9°C° 0 mm 1 m/S 606 mmHg 87%
06:00 +11°C° 0 mm 1 m/S 606 mmHg 82%
07:00 +12°C° 0 mm 1 m/S 607 mmHg 76%
08:00 +14°C° 0 mm 1 m/S 607 mmHg 69%
09:00 +16°C° 0 mm 1 m/S 608 mmHg 61%
10:00 +19°C° 0 mm 1 m/S 608 mmHg 54%
11:00 +20°C° 0 mm 1 m/S 608 mmHg 51%
12:00 +20°C° 0 mm 2 m/S 608 mmHg 47%
13:00 +21°C° 0 mm 2 m/S 608 mmHg 44%
14:00 +21°C° 0 mm 2 m/S 608 mmHg 44%
15:00 +21°C° 0 mm 2 m/S 607 mmHg 45%
16:00 +21°C° 0 mm 2 m/S 607 mmHg 45%
17:00 +19°C° 0 mm 2 m/S 607 mmHg 53%
18:00 +19°C° 0 mm 1 m/S 606 mmHg 60%
19:00 +16°C° 0 mm 1 m/S 605 mmHg 68%
20:00 +15°C° 0 mm 1 m/S 605 mmHg 72%
21:00 +13°C° 0 mm 2 m/S 604 mmHg 76%
22:00 +10°C° 0 mm 2 m/S 604 mmHg 80%
23:00 +10°C° 0 mm 2 m/S 604 mmHg 81%
Mehr zeigen

Wir brauchen deine Erlaubnis

Meteoprog und unser Service Anbieter werden persönliche Daten aufbewahren, so wie Cookies, Geräte Bezeichnung oder ähnliche Technologien von deinem Gerät und Prozess, so wie Persönliche Daten Inhalte und Werbungen, genauso wie social Media und den Verkehr zu analysieren.

  • Aufbewahrung und/oder Zugang zu deiner Geräte Informationen.

    Cookies, Geräte Bezeichnung oder andere Informationen, können aufbewahrt oder Zugang zu deinem Gerät erhalten, für den Grund, der oben angegeben wird.

  • Personalisierte Werbung und Inhalte, Messungen, Einblick in das Publikum und Produkt Entwicklung.

    Werbungen und Inhalte können personalisiert werden, basierend auf ein Profil. Mehr Daten können besser personalisierte Werbungen und Inhalte hinzufügen. Werbung und Inhalte können gezeigt und gemessen werden. Einblicke über das Publikum, welche die Werbung gesehen haben und den Inhalt, können abgeleitet werden. So wie Daten können genutzt werden, um es zu verbessern oder die Benutzer Erfahrung zu verbessern das System und die Software.

Wenn du “Ich stimme zu” klickst, erlaubst du uns, die Cookies zu benutzen die Geräte Bezeichnung, den Web oder ähnliche Technologien zu benutzen. Deine Settings, können in deinem Gerät bei deinem Browser geändert werden.

Für den bestimmten Zweck, berechtigten Interessen beruhen darauf, mehr als auf den Inhalt. Du kannst mehr darüber in unseren Privaten und Cookie Politik lesen.